Location: Coupvray
(48.8929°N, 2.7967°E)
Time: 21:00:43
(UTC+00:00)

X-37B - Pass Details

Date: 06 October 2020
Orbit: 382 x 392 km, 45.0° (Epoch: 15 October)

Event Time Altitude Azimuth Distance (km) Brightness Sun altitude
Rises 18:26:13 0° 238° (WSW) 2,263 5.4 -12.3°
Reaches altitude 10° 18:28:26 10° 227° (SW) 1,408 4.0 -12.6°
Maximum altitude 18:31:14 29° 165° (SSE) 737 1.8 -13.1°
Enters shadow 18:32:22 23° 127° (SE) 882 1.9 -13.3°
